Location: Notre Dame Regional High School Observatory
(37.3056°N, 89.6097°W)
Time: 12:12:52
(UTC-05:00)

Okean-O - Visible Passes

Search period start: 26 April 2015 00:00
Search period end: 06 May 2015 00:00
Orbit: 641 x 643 km, 98.1° (Epoch: 25 April)

Date Brightness Start Highest point End Pass type
(mag) Time Alt. Az. Time Alt. Az. Time Alt. Az.
26 Apr 2.6 04:39:57 10° NNE 04:44:25 90° NW 04:47:54 16° SSW visible
27 Apr 5.3 03:29:23 10° ENE 03:31:31 14° E 03:33:52 10° ESE visible
27 Apr 2.9 05:04:07 10° N 05:08:24 47° WNW 05:12:19 12° SW visible
28 Apr 4.6 03:52:11 10° NE 03:55:49 25° E 03:59:07 12° SSE visible
28 Apr 3.8 05:28:36 10° NNW 05:32:20 26° WNW 05:35:59 10° SW visible
29 Apr 3.5 04:15:42 10° NNE 04:19:59 46° E 04:23:31 14° S visible
30 Apr 2.6 04:39:35 10° NNE 04:44:03 89° ESE 04:47:56 14° SSW visible
01 May 5.3 03:29:05 10° ENE 03:31:08 13° E 03:33:26 10° ESE visible
01 May 2.9 05:03:45 10° N 05:08:02 48° WNW 05:12:18 10° SSW visible
02 May 4.6 03:51:49 10° NE 03:55:26 25° E 03:59:06 10° SSE visible
02 May 3.8 05:28:12 10° NNW 05:31:58 27° WNW 05:35:38 10° SW visible
03 May 3.6 04:15:20 10° NNE 04:19:36 46° E 04:23:29 12° S visible
04 May 2.6 04:39:11 10° NNE 04:43:39 87° ESE 04:47:53 11° SSW visible
05 May 5.3 03:28:44 10° ENE 03:30:44 13° E 03:32:57 10° ESE visible
05 May 2.9 05:03:19 10° N 05:07:38 49° WNW 05:11:54 10° SSW visible
